| time (UTC) | temp C | wind direction | speed KPH | gust KPH | rain 1hr cm | rain 24hr cm | rain mn cm | humidity % | barometer mb |
| 20260504110210 | 17 | 17 | 20.9 | 0.0 | 0.00 | 0.00 | 0.00 | 51 | 1009.2 |
| 20260504100212 | 17 | 310 | 14.5 | 0.0 | 0.00 | 0.00 | 0.00 | 50 | 1009.7 |
| 20260504080210 | 16 | 51 | 14.5 | 0.0 | 0.00 | 0.00 | 0.00 | 55 | 1010.6 |
| 20260504070211 | 15 | 71 | 8.0 | 0.0 | 0.00 | 0.00 | 0.00 | 55 | 1010.6 |
| 20260504060212 | 13 | 14 | 6.4 | 0.0 | 0.00 | 0.00 | 0.00 | 57 | 1010.7 |
| 20260504050210 | 12 | 69 | 8.0 | 0.0 | 0.00 | 0.00 | 0.00 | 59 | 1010.5 |
| 20260504043211 | 12 | 61 | 4.8 | 0.0 | 0.00 | 0.00 | 0.00 | 62 | 1010.6 |
| 20260504040211 | 11 | 75 | 3.2 | 0.0 | 0.00 | 0.00 | 0.00 | 68 | 1010.5 |
| 20260504033211 | 11 | 208 | 0.0 | 0.0 | 0.00 | 0.00 | 0.00 | 68 | 1010.7 |
| 20260504030212 | 11 | 208 | 3.2 | 0.0 | 0.00 | 0.00 | 0.00 | 67 | 1010.9 |
| 20260504023211 | 12 | 208 | 6.4 | 0.0 | 0.00 | 0.00 | 0.00 | 65 | 1011.1 |
| 20260504020212 | 12 | 159 | 4.8 | 0.0 | 0.00 | 0.00 | 0.00 | 61 | 1010.8 |
| 20260504013211 | 12 | 61 | 4.8 | 0.0 | 0.00 | 0.00 | 0.00 | 59 | 1010.8 |
| 20260504010211 | 13 | 76 | 11.3 | 0.0 | 0.00 | 0.00 | 0.00 | 58 | 1010.7 |
| 20260504003210 | 12 | 76 | 6.4 | 0.0 | 0.00 | 0.00 | 0.00 | 62 | 1010.8 |
| 20260504000208 | 12 | 67 | 0.0 | 0.0 | 0.00 | 0.00 | 0.00 | 63 | 1011.2 |
| 20260503233209 | 12 | 67 | 4.8 | 0.0 | 0.00 | 0.00 | 0.00 | 64 | 1011.2 |
| 20260503230209 | 12 | 287 | 0.0 | 0.0 | 0.00 | 0.00 | 0.00 | 63 | 1011.4 |
| 20260503223210 | 12 | 287 | 6.4 | 0.0 | 0.00 | 0.00 | 0.00 | 62 | 1011.5 |
| 20260503220212 | 12 | 295 | 6.4 | 0.0 | 0.00 | 0.00 | 0.00 | 62 | 1011.3 |
| 20260503213210 | 13 | 273 | 11.3 | 0.0 | 0.00 | 0.00 | 0.00 | 59 | 1011.0 |
| 20260503210211 | 13 | 248 | 9.7 | 0.0 | 0.00 | 0.00 | 0.00 | 59 | 1010.7 |
| 20260503203209 | 13 | 271 | 17.7 | 0.0 | 0.00 | 0.00 | 0.00 | 57 | 1010.5 |
| 20260503200211 | 13 | 252 | 9.7 | 0.0 | 0.00 | 0.00 | 0.00 | 58 | 1010.3 |
| 20260503193210 | 14 | 284 | 14.5 | 0.0 | 0.00 | 0.00 | 0.00 | 54 | 1009.7 |
| 20260503190210 | 15 | 295 | 17.7 | 0.0 | 0.00 | 0.00 | 0.00 | 49 | 1009.5 |
| 20260503183209 | 16 | 272 | 19.3 | 0.0 | 0.00 | 0.00 | 0.00 | 44 | 1009.4 |
| 20260503180210 | 17 | 240 | 11.3 | 0.0 | 0.00 | 0.00 | 0.00 | 53 | 1008.8 |
| 20260503173209 | 20 | 219 | 19.3 | 0.0 | 0.00 | 0.00 | 0.00 | 45 | 1008.5 |
| 20260503170211 | 20 | 209 | 4.8 | 0.0 | 0.00 | 0.00 | 0.00 | 42 | 1008.5 |
| 20260503160211 | 21 | 213 | 6.4 | 0.0 | 0.00 | 0.00 | 0.00 | 39 | 1008.3 |
| 20260503150209 | 21 | 168 | 19.3 | 0.0 | 0.00 | 0.00 | 0.00 | 37 | 1008.4 |
| 20260503140210 | 22 | 186 | 16.1 | 0.0 | 0.00 | 0.00 | 0.00 | 31 | 1008.6 |
| 20260503130210 | 22 | 230 | 9.7 | 0.0 | 0.00 | 0.00 | 0.00 | 34 | 1009.4 |
| 20260503120210 | 22 | 257 | 12.9 | 0.0 | 0.00 | 0.00 | 0.00 | 32 | 1010.0 |